Location: East Irvine
(33.6759°N, 117.7598°W)
Time: 01:18:57
(UTC+00:00)

ISS - Pass Details

Date: 15 November 2025
Orbit: 416 x 421 km, 51.6° (Epoch: 07 December)

Event Time Altitude Azimuth Distance (km) Brightness Sun altitude
Rises 01:34:54 0° 247° (WSW) 2,358 2.2 -10.0°
Reaches altitude 10° 01:37:09 10° 258° (WSW) 1,495 0.7 -10.4°
Maximum altitude 01:40:11 31° 322° (NW) 763 -2.2 -11.1°
Drops below altitude 10° 01:43:13 10° 27° (NNE) 1,497 -1.3 -11.7°
Enters shadow 01:43:18 10° 28° (NNE) 1,529 -1.3 -11.7°
